QPF
0.05 0.05 0.07 0.09 0.10 0.08 0.06 0.07 0.09 0.12 0.13 0.11 0.08 0.04 0.03 0.03 0.03 0.02 0.01 0.01 0.01 0.02 0.02 0.02 0.02 0.02 0.02 0.02 0.02 0.02 0.02 0.03 0.04 0.05 0.05 0.05 0.03 0.03 0.05 0.05 0.05 0.05 0.04
0.04 0.06 0.10 0.10 0.09 0.08 0.06 0.06 0.07 0.07 0.07 0.05 0.03 0.03 0.02 0.03 0.03 0.03 0.02 0.02 0.01 0.01 0.01 0.01 0.01 0.02 0.04 0.03 0.02 0.03 0.02 0.02 0.02 0.03 0.04 0.06 0.04 0.03 0.04 0.05 0.05 0.05 0.05
0.04 0.04 0.06 0.06 0.05 0.05 0.04 0.04 0.03 0.03 0.03 0.03 0.03 0.02 0.03 0.03 0.03 0.03 0.03 0.02 0.02 0.02 0.02 0.01 0.01 0.02 0.03 0.02 0.02 0.02 0.02 0.02 0.02 0.02 0.03 0.04 0.05 0.04 0.03 0.03 0.03 0.02 0.02
0.05 0.06 0.06 0.05 0.05 0.05 0.05 0.03 0.03 0.03 0.02 0.02 0.02 0.02 0.03 0.04 0.04 0.04 0.04 0.04 0.05 0.04 0.03 0.01 0.01 0.02 0.02 0.02 0.01 0.01 0.01 0.02 0.02 0.04 0.04 0.04 0.04 0.04 0.04 0.04 0.03 0.03 0.02
0.05 0.06 0.08 0.08 0.07 0.06 0.06 0.05 0.04 0.03 0.03 0.02 0.02 0.03 0.05 0.06 0.07 0.07 0.06 0.07 0.06 0.04 0.03 0.02 0.02 0.02 0.02 0.02 0.02 0.02 0.02 0.02 0.02 0.02 0.03 0.04 0.04 0.04 0.04 0.04 0.04 0.04 0.04
0.05 0.07 0.07 0.08 0.08 0.08 0.08 0.06 0.05 0.03 0.03 0.03 0.03 0.03 0.05 0.08 0.10 0.09 0.07 0.06 0.04 0.04 0.03 0.03 0.02 0.02 0.03 0.02 0.02 0.02 0.02 0.02 0.02 0.02 0.02 0.03 0.03 0.03 0.03 0.04 0.04 0.04 0.05
0.02 0.05 0.06 0.05 0.06 0.07 0.06 0.04 0.04 0.04 0.04 0.04 0.04 0.06 0.07 0.10 0.11 0.09 0.07 0.05 0.04 0.04 0.03 0.03 0.02 0.02 0.02 0.02 0.01 0.01 0.01 0.01 0.01 0.02 0.02 0.02 0.01 0.02 0.03 0.04 0.04 0.04 0.05
0.01 0.02 0.03 0.03 0.03 0.03 0.03 0.04 0.05 0.07 0.06 0.05 0.07 0.09 0.09 0.09 0.08 0.07 0.07 0.05 0.04 0.04 0.03 0.02 0.02 0.02 0.02 0.02 0.02 0.01 0.01 0.00 0.01 0.01 0.02 0.02 0.02 0.03 0.04 0.04 0.04 0.05 0.04
0.02 0.02 0.02 0.02 0.02 0.01 0.02 0.03 0.04 0.07 0.05 0.06 0.07 0.07 0.07 0.05 0.04 0.04 0.05 0.05 0.04 0.03 0.02 0.02 0.01 0.01 0.01 0.02 0.02 0.01 0.01 0.00 0.01 0.01 0.01 0.02 0.02 0.04 0.04 0.05 0.06 0.05 0.04
0.01 0.01 0.01 0.01 0.02 0.01 0.03 0.05 0.05 0.04 0.02 0.02 0.03 0.02 0.02 0.02 0.03 0.03 0.03 0.03 0.02 0.02 0.01 0.01 0.01 0.00 0.00 0.01 0.01 0.01 0.01 0.01 0.00 0.01 0.01 0.01 0.01 0.02 0.04 0.06 0.06 0.04 0.03
0.01 0.01 0.01 0.01 0.02 0.02 0.03 0.04 0.04 0.02 0.01 0.01 0.01 0.00 0.00 0.01 0.01 0.01 0.01 0.01 0.01 0.01 0.00 0.00 0.00 0.00 0.00 0.01 0.01 0.00 0.01 0.01 0.01 0.01 0.01 0.01 0.01 0.02 0.02 0.03 0.03 0.03 0.02
0.01 0.01 0.00 0.01 0.02 0.03 0.03 0.03 0.02 0.01 0.01 0.01 0.01 0.01 0.00 0.00 0.00 0.00 0.01 0.01 0.01 0.01 0.00 0.00 0.00 0.00 0.00 0.00 0.00 0.00 0.00 0.00 0.00 0.00 0.00 0.01 0.01 0.01 0.02 0.02 0.02 0.02 0.01
0.01 0.00 0.00 0.01 0.03 0.04 0.04 0.02 0.01 0.00 0.00 0.00 0.01 0.01 0.01 0.01 0.01 0.01 0.01 0.01 0.01 0.01 0.00 0.00 0.01 0.01 0.00 0.00 0.01 0.00 0.00 0.00 0.01 0.01 0.01 0.01 0.01 0.02 0.02 0.03 0.03 0.02 0.02
0.01 0.01 0.01 0.02 0.05 0.04 0.03 0.01 0.00 0.00 0.00 0.00 0.01 0.01 0.00 0.00 0.00 0.00 0.00 0.00 0.00 0.01 0.01 0.01 0.01 0.01 0.01 0.01 0.01 0.00 0.00 0.00 0.01 0.01 0.02 0.01 0.01 0.02 0.03 0.05 0.07 0.04 0.03
0.02 0.01 0.02 0.05 0.05 0.02 0.01 0.01 0.00 0.00 0.00 0.00 0.00 0.00 0.00 0.00 0.00 0.00 0.00 0.01 0.01 0.01 0.01 0.01 0.01 0.01 0.01 0.01 0.01 0.01 0.01 0.01 0.01 0.01 0.01 0.01 0.01 0.01 0.02 0.05 0.09 0.07 0.05
0.02 0.03 0.04 0.06 0.04 0.02 0.01 0.00 0.00 0.00 0.00 0.00 0.00 0.00 0.00 0.00 0.00 0.00 0.01 0.01 0.01 0.01 0.01 0.01 0.01 0.01 0.01 0.01 0.01 0.01 0.01 0.01 0.01 0.02 0.02 0.02 0.02 0.02 0.02 0.03 0.04 0.05 0.06
0.03 0.04 0.05 0.05 0.04 0.01 0.01 0.00 0.00 0.00 0.00 0.00 0.01 0.01 0.01 0.00 0.01 0.01 0.01 0.01 0.01 0.01 0.00 0.00 0.01 0.01 0.01 0.01 0.01 0.01 0.01 0.01 0.02 0.03 0.03 0.03 0.03 0.03 0.03 0.04 0.04 0.05 0.04
0.03 0.04 0.04 0.04 0.02 0.01 0.01 0.00 0.00 0.00 0.00 0.00 0.01 0.01 0.00 0.01 0.01 0.01 0.00 0.00 0.00 0.00 0.00 0.00 0.01 0.01 0.01 0.01 0.01 0.01 0.02 0.03 0.03 0.03 0.03 0.03 0.03 0.04 0.05 0.05 0.05 0.04 0.04
0.02 0.02 0.02 0.01 0.01 0.01 0.00 0.00 0.00 0.00 0.00 0.00 0.00 0.00 0.00 0.01 0.00 0.00 0.00 0.00 0.00 0.00 0.00 0.00 0.01 0.01 0.01 0.01 0.01 0.02 0.04 0.07 0.06 0.05 0.04 0.04 0.04 0.04 0.05 0.05 0.04 0.04 0.04
0.01 0.01 0.02 0.01 0.00 0.00 0.00 0.01 0.00 0.00 0.00 0.00 0.00 0.00 0.00 0.00 0.00 0.00 0.00 0.01 0.01 0.01 0.01 0.01 0.01 0.01 0.01 0.01 0.02 0.03 0.05 0.07 0.07 0.06 0.05 0.04 0.03 0.04 0.04 0.04 0.04 0.03 0.03
0.00 0.01 0.01 0.01 0.00 0.00 0.01 0.01 0.01 0.00 0.00 0.01 0.00 0.01 0.01 0.01 0.00 0.00 0.00 0.01 0.01 0.01 0.01 0.01 0.01 0.01 0.02 0.02 0.02 0.03 0.04 0.05 0.04 0.04 0.04 0.03 0.03 0.03 0.02 0.03 0.03 0.03 0.02
0.00 0.00 0.00 0.00 0.00 0.00 0.00 0.01 0.00 0.00 0.00 0.00 0.01 0.01 0.01 0.00 0.00 0.00 0.01 0.01 0.01 0.01 0.01 0.01 0.01 0.02 0.03 0.02 0.03 0.03 0.04 0.04 0.04 0.03 0.03 0.03 0.02 0.02 0.02 0.02 0.02 0.02 0.02
0.01 0.00 0.00 0.00 0.00 0.00 0.00 0.00 0.00 0.00 0.00 0.00 0.00 0.00 0.00 0.00 0.00 0.01 0.01 0.01 0.01 0.01 0.01 0.01 0.02 0.04 0.03 0.02 0.02 0.02 0.02 0.02 0.02 0.03 0.04 0.04 0.04 0.03 0.03 0.02 0.02 0.02 0.02
0.01 0.00 0.00 0.00 0.00 0.00 0.00 0.00 0.00 0.00 0.00 0.00 0.00 0.00 0.00 0.00 0.00 0.00 0.00 0.01 0.01 0.01 0.01 0.02 0.06 0.05 0.02 0.01 0.01 0.01 0.01 0.03 0.04 0.03 0.03 0.03 0.03 0.03 0.02 0.02 0.01 0.01 0.02
0.02 0.01 0.01 0.00 0.00 0.00 0.00 0.00 0.00 0.00 0.00 0.00 0.01 0.01 0.01 0.00 0.00 0.00 0.00 0.00 0.00 0.01 0.01 0.03 0.03 0.02 0.01 0.01 0.02 0.02 0.02 0.02 0.03 0.03 0.02 0.02 0.02 0.02 0.02 0.01 0.01 0.01 0.01
0.03 0.02 0.01 0.01 0.01 0.00 0.00 0.00 0.00 0.00 0.01 0.01 0.01 0.01 0.01 0.00 0.01 0.01 0.01 0.01 0.00 0.00 0.01 0.01 0.02 0.02 0.02 0.02 0.02 0.02 0.01 0.01 0.01 0.01 0.01 0.01 0.02 0.01 0.01 0.01 0.01 0.01 0.02
MSLP
1018.27 1018.29 1018.29 1018.21 1018.05 1017.78 1017.43 1017.03 1016.61 1016.21 1015.86 1015.57 1015.33 1015.13 1014.94 1014.75 1014.53 1014.28 1013.99 1013.67 1013.33 1012.97 1012.60 1012.22 1011.82 1011.40 1010.95 1010.48 1009.99 1009.50 1009.03 1008.59 1008.18 1007.80 1007.45 1007.11 1006.77 1006.40 1006.02 1005.62 1005.22 1004.85 1004.54
1018.07 1018.06 1018.02 1017.91 1017.72 1017.45 1017.11 1016.73 1016.35 1015.97 1015.64 1015.35 1015.10 1014.86 1014.63 1014.38 1014.10 1013.78 1013.43 1013.06 1012.68 1012.29 1011.90 1011.50 1011.11 1010.70 1010.27 1009.83 1009.39 1008.95 1008.52 1008.11 1007.74 1007.39 1007.05 1006.72 1006.38 1006.03 1005.65 1005.27 1004.89 1004.55 1004.27
1017.89 1017.87 1017.80 1017.66 1017.45 1017.17 1016.84 1016.47 1016.11 1015.76 1015.44 1015.15 1014.87 1014.61 1014.32 1014.01 1013.66 1013.27 1012.86 1012.43 1012.01 1011.59 1011.18 1010.78 1010.40 1010.00 1009.61 1009.20 1008.80 1008.39 1008.00 1007.63 1007.29 1006.96 1006.65 1006.34 1006.02 1005.69 1005.35 1005.00 1004.67 1004.37 1004.13
1017.71 1017.69 1017.60 1017.43 1017.20 1016.90 1016.57 1016.22 1015.87 1015.53 1015.22 1014.93 1014.63 1014.32 1013.99 1013.61 1013.20 1012.75 1012.28 1011.80 1011.34 1010.90 1010.48 1010.09 1009.70 1009.33 1008.96 1008.58 1008.20 1007.83 1007.46 1007.12 1006.79 1006.49 1006.20 1005.92 1005.64 1005.36 1005.06 1004.78 1004.51 1004.28 1004.11
1017.50 1017.48 1017.37 1017.19 1016.94 1016.63 1016.29 1015.95 1015.60 1015.28 1014.97 1014.67 1014.35 1014.01 1013.62 1013.19 1012.72 1012.22 1011.70 1011.18 1010.69 1010.23 1009.81 1009.42 1009.05 1008.69 1008.33 1007.97 1007.60 1007.24 1006.88 1006.55 1006.24 1005.95 1005.69 1005.45 1005.22 1004.99 1004.77 1004.56 1004.38 1004.24 1004.15
1017.22 1017.21 1017.10 1016.91 1016.64 1016.33 1015.99 1015.64 1015.31 1014.99 1014.68 1014.36 1014.02 1013.65 1013.22 1012.75 1012.23 1011.68 1011.13 1010.59 1010.08 1009.61 1009.18 1008.79 1008.43 1008.07 1007.72 1007.36 1006.99 1006.62 1006.27 1005.93 1005.62 1005.35 1005.11 1004.91 1004.73 1004.57 1004.43 1004.32 1004.23 1004.17 1004.17
1016.88 1016.88 1016.78 1016.59 1016.32 1016.00 1015.66 1015.32 1014.99 1014.67 1014.35 1014.02 1013.66 1013.26 1012.80 1012.28 1011.73 1011.15 1010.58 1010.02 1009.51 1009.04 1008.61 1008.22 1007.86 1007.50 1007.14 1006.77 1006.39 1006.01 1005.64 1005.29 1004.98 1004.71 1004.50 1004.33 1004.20 1004.11 1004.05 1004.02 1004.02 1004.05 1004.13
1016.49 1016.51 1016.43 1016.24 1015.98 1015.67 1015.34 1015.00 1014.67 1014.35 1014.02 1013.68 1013.29 1012.86 1012.37 1011.83 1011.25 1010.65 1010.07 1009.51 1008.99 1008.52 1008.10 1007.72 1007.35 1006.99 1006.62 1006.24 1005.84 1005.43 1005.04 1004.68 1004.36 1004.10 1003.89 1003.75 1003.67 1003.63 1003.63 1003.67 1003.74 1003.85 1003.99
1016.08 1016.13 1016.07 1015.90 1015.66 1015.36 1015.04 1014.71 1014.38 1014.05 1013.71 1013.34 1012.93 1012.47 1011.95 1011.39 1010.79 1010.19 1009.60 1009.04 1008.54 1008.08 1007.67 1007.29 1006.93 1006.56 1006.18 1005.78 1005.36 1004.94 1004.53 1004.15 1003.82 1003.56 1003.36 1003.24 1003.18 1003.18 1003.22 1003.31 1003.42 1003.57 1003.75
1015.70 1015.77 1015.73 1015.59 1015.37 1015.09 1014.78 1014.46 1014.13 1013.78 1013.42 1013.03 1012.59 1012.10 1011.56 1010.97 1010.37 1009.77 1009.18 1008.64 1008.14 1007.70 1007.30 1006.93 1006.57 1006.20 1005.81 1005.40 1004.97 1004.54 1004.12 1003.73 1003.40 1003.13 1002.94 1002.83 1002.78 1002.80 1002.86 1002.96 1003.09 1003.26 1003.45
1015.36 1015.45 1015.43 1015.31 1015.11 1014.85 1014.55 1014.23 1013.89 1013.53 1013.15 1012.72 1012.25 1011.74 1011.17 1010.58 1009.97 1009.37 1008.80 1008.27 1007.80 1007.37 1006.99 1006.63 1006.27 1005.90 1005.51 1005.09 1004.66 1004.22 1003.80 1003.41 1003.08 1002.82 1002.63 1002.52 1002.48 1002.50 1002.56 1002.66 1002.79 1002.94 1003.12
1015.06 1015.16 1015.15 1015.05 1014.87 1014.62 1014.33 1014.01 1013.66 1013.28 1012.86 1012.41 1011.91 1011.37 1010.79 1010.19 1009.59 1009.00 1008.44 1007.94 1007.48 1007.07 1006.70 1006.35 1005.99 1005.62 1005.23 1004.82 1004.39 1003.95 1003.54 1003.16 1002.84 1002.59 1002.42 1002.31 1002.27 1002.28 1002.33 1002.42 1002.52 1002.65 1002.80
1014.80 1014.88 1014.88 1014.78 1014.60 1014.36 1014.07 1013.74 1013.38 1012.98 1012.54 1012.06 1011.54 1010.98 1010.39 1009.79 1009.20 1008.63 1008.09 1007.60 1007.17 1006.77 1006.41 1006.06 1005.71 1005.34 1004.95 1004.53 1004.11 1003.69 1003.29 1002.93 1002.64 1002.40 1002.24 1002.15 1002.11 1002.12 1002.16 1002.23 1002.31 1002.42 1002.54
1014.52 1014.59 1014.56 1014.46 1014.28 1014.04 1013.74 1013.41 1013.03 1012.61 1012.15 1011.66 1011.12 1010.55 1009.97 1009.37 1008.79 1008.24 1007.73 1007.26 1006.84 1006.45 1006.09 1005.74 1005.39 1005.01 1004.62 1004.21 1003.80 1003.39 1003.01 1002.68 1002.41 1002.21 1002.07 1002.00 1001.97 1001.99 1002.03 1002.08 1002.15 1002.23 1002.33
1014.20 1014.23 1014.19 1014.07 1013.88 1013.64 1013.34 1012.99 1012.61 1012.18 1011.71 1011.20 1010.66 1010.09 1009.51 1008.93 1008.37 1007.84 1007.35 1006.90 1006.49 1006.11 1005.75 1005.39 1005.03 1004.65 1004.25 1003.84 1003.44 1003.05 1002.70 1002.40 1002.16 1001.99 1001.88 1001.83 1001.83 1001.85 1001.90 1001.96 1002.02 1002.09 1002.17
1013.82 1013.82 1013.75 1013.62 1013.43 1013.17 1012.87 1012.53 1012.13 1011.70 1011.22 1010.71 1010.17 1009.61 1009.04 1008.48 1007.94 1007.43 1006.95 1006.52 1006.12 1005.74 1005.38 1005.01 1004.64 1004.26 1003.86 1003.46 1003.06 1002.69 1002.37 1002.09 1001.89 1001.74 1001.67 1001.65 1001.66 1001.71 1001.77 1001.83 1001.90 1001.96 1002.04
1013.38 1013.36 1013.28 1013.14 1012.95 1012.70 1012.40 1012.05 1011.66 1011.22 1010.74 1010.23 1009.69 1009.13 1008.57 1008.02 1007.50 1007.01 1006.55 1006.13 1005.74 1005.37 1005.00 1004.64 1004.27 1003.88 1003.49 1003.10 1002.72 1002.37 1002.07 1001.82 1001.64 1001.52 1001.47 1001.47 1001.51 1001.56 1001.63 1001.70 1001.77 1001.83 1001.90
1012.93 1012.90 1012.82 1012.69 1012.50 1012.26 1011.96 1011.61 1011.22 1010.78 1010.29 1009.77 1009.23 1008.68 1008.12 1007.58 1007.07 1006.59 1006.15 1005.74 1005.36 1005.00 1004.65 1004.29 1003.93 1003.56 1003.18 1002.81 1002.46 1002.13 1001.85 1001.63 1001.47 1001.37 1001.33 1001.33 1001.37 1001.43 1001.50 1001.56 1001.63 1001.69 1001.75
1012.51 1012.49 1012.43 1012.30 1012.13 1011.89 1011.60 1011.25 1010.85 1010.39 1009.90 1009.37 1008.81 1008.25 1007.69 1007.15 1006.64 1006.17 1005.74 1005.34 1004.98 1004.64 1004.31 1003.98 1003.65 1003.31 1002.96 1002.62 1002.30 1002.01 1001.75 1001.55 1001.40 1001.31 1001.26 1001.26 1001.29 1001.33 1001.37 1001.42 1001.47 1001.51 1001.56
1012.15 1012.16 1012.11 1012.01 1011.84 1011.61 1011.31 1010.95 1010.53 1010.06 1009.54 1008.99 1008.41 1007.83 1007.25 1006.71 1006.20 1005.73 1005.31 1004.93 1004.59 1004.28 1003.98 1003.69 1003.40 1003.11 1002.81 1002.52 1002.25 1001.99 1001.77 1001.58 1001.44 1001.34 1001.28 1001.25 1001.24 1001.25 1001.26 1001.28 1001.29 1001.31 1001.33
1011.88 1011.91 1011.88 1011.78 1011.62 1011.38 1011.07 1010.69 1010.24 1009.74 1009.19 1008.60 1007.99 1007.39 1006.80 1006.23 1005.72 1005.25 1004.84 1004.48 1004.16 1003.88 1003.63 1003.39 1003.16 1002.92 1002.69 1002.46 1002.23 1002.02 1001.83 1001.67 1001.53 1001.42 1001.34 1001.28 1001.23 1001.19 1001.16 1001.13 1001.10 1001.08 1001.07
1011.67 1011.71 1011.68 1011.58 1011.41 1011.15 1010.81 1010.40 1009.92 1009.38 1008.79 1008.17 1007.53 1006.90 1006.29 1005.72 1005.19 1004.72 1004.32 1003.98 1003.69 1003.44 1003.23 1003.04 1002.87 1002.69 1002.52 1002.35 1002.18 1002.02 1001.87 1001.73 1001.60 1001.48 1001.38 1001.29 1001.21 1001.13 1001.05 1000.97 1000.90 1000.85 1000.81
1011.47 1011.51 1011.46 1011.34 1011.13 1010.84 1010.47 1010.02 1009.50 1008.93 1008.31 1007.66 1007.01 1006.36 1005.74 1005.16 1004.63 1004.17 1003.77 1003.44 1003.17 1002.95 1002.77 1002.62 1002.49 1002.37 1002.25 1002.14 1002.02 1001.90 1001.79 1001.67 1001.56 1001.45 1001.34 1001.24 1001.13 1001.02 1000.91 1000.80 1000.71 1000.63 1000.57
1011.24 1011.23 1011.15 1010.99 1010.74 1010.41 1010.00 1009.51 1008.97 1008.38 1007.75 1007.09 1006.44 1005.80 1005.18 1004.61 1004.09 1003.64 1003.24 1002.92 1002.65 1002.44 1002.27 1002.13 1002.02 1001.93 1001.84 1001.76 1001.68 1001.60 1001.52 1001.44 1001.35 1001.27 1001.17 1001.07 1000.97 1000.85 1000.74 1000.63 1000.53 1000.44 1000.38
1010.91 1010.85 1010.72 1010.51 1010.22 1009.85 1009.41 1008.91 1008.36 1007.77 1007.15 1006.53 1005.90 1005.29 1004.70 1004.15 1003.65 1003.20 1002.81 1002.48 1002.20 1001.96 1001.78 1001.62 1001.50 1001.40 1001.32 1001.25 1001.19 1001.13 1001.08 1001.03 1000.98 1000.92 1000.86 1000.79 1000.72 1000.64 1000.55 1000.46 1000.38 1000.30 1000.25
1010.47 1010.36 1010.18 1009.92 1009.60 1009.20 1008.76 1008.27 1007.74 1007.19 1006.62 1006.04 1005.48 1004.92 1004.38 1003.88 1003.40 1002.96 1002.56 1002.21 1001.89 1001.62 1001.38 1001.18 1001.00 1000.86 1000.75 1000.65 1000.58 1000.53 1000.49 1000.47 1000.46 1000.45 1000.44 1000.42 1000.40 1000.38 1000.34 1000.30 1000.26 1000.22 1000.18
Thickness
5650 5645 5640 5636 5633 5629 5625 5621 5617 5614 5610 5608 5606 5603 5600 5598 5596 5593 5592 5591 5591 5590 5589 5589 5589 5589 5588 5589 5589 5589 5588 5588 5589 5591 5591 5593 5595 5596 5597 5598 5599 5600 5602
5646 5642 5637 5633 5629 5626 5622 5619 5615 5611 5608 5605 5603 5601 5598 5596 5593 5591 5590 5590 5589 5588 5587 5586 5586 5587 5586 5586 5586 5587 5586 5586 5586 5587 5588 5589 5591 5592 5593 5594 5595 5597 5598
5643 5638 5634 5629 5626 5623 5620 5617 5613 5609 5605 5602 5600 5598 5596 5593 5591 5590 5589 5588 5587 5586 5586 5585 5585 5584 5584 5584 5584 5584 5584 5584 5583 5583 5584 5585 5586 5588 5589 5590 5592 5593 5595
5640 5635 5631 5627 5624 5621 5617 5614 5611 5607 5603 5600 5598 5596 5593 5591 5590 5589 5588 5587 5586 5585 5584 5583 5583 5583 5583 5582 5582 5582 5582 5581 5580 5580 5581 5582 5583 5583 5584 5586 5588 5589 5590
5636 5632 5629 5625 5622 5618 5615 5612 5609 5605 5602 5599 5597 5594 5592 5590 5589 5588 5587 5586 5585 5584 5583 5582 5582 5582 5582 5581 5581 5580 5580 5579 5578 5577 5578 5579 5580 5580 5581 5582 5583 5584 5586
5634 5630 5627 5623 5619 5615 5612 5609 5606 5603 5600 5597 5595 5592 5590 5589 5588 5586 5585 5584 5583 5582 5581 5581 5581 5581 5581 5580 5579 5579 5578 5577 5576 5575 5575 5576 5577 5578 5578 5578 5579 5580 5582
5631 5628 5625 5621 5617 5613 5610 5607 5603 5600 5597 5595 5593 5591 5589 5588 5587 5585 5584 5582 5581 5579 5579 5578 5579 5579 5578 5577 5577 5577 5577 5576 5575 5574 5574 5575 5576 5577 5577 5577 5576 5576 5577
5628 5625 5622 5618 5615 5611 5607 5604 5601 5598 5595 5593 5591 5589 5587 5586 5585 5584 5582 5581 5579 5578 5577 5576 5575 5576 5575 5575 5575 5575 5575 5575 5574 5574 5574 5575 5575 5576 5575 5575 5574 5574 5575
5626 5623 5620 5617 5613 5609 5606 5602 5599 5596 5594 5591 5589 5587 5585 5585 5584 5583 5581 5579 5577 5577 5576 5575 5574 5574 5574 5573 5572 5572 5573 5574 5574 5573 5574 5574 5574 5574 5573 5572 5572 5572 5574
5624 5621 5618 5615 5611 5608 5605 5601 5598 5595 5592 5590 5588 5586 5584 5583 5582 5581 5579 5578 5576 5576 5576 5575 5574 5573 5573 5571 5570 5570 5571 5572 5572 5573 5573 5573 5574 5574 5572 5571 5572 5571 5572
5622 5619 5617 5613 5610 5607 5604 5601 5597 5594 5591 5588 5586 5585 5584 5582 5582 5581 5579 5577 5576 5575 5575 5575 5575 5573 5571 5570 5569 5569 5569 5569 5570 5570 5571 5573 5573 5573 5573 5572 5571 5570 5571
5620 5617 5615 5612 5609 5607 5603 5599 5596 5592 5589 5587 5585 5585 5584 5583 5581 5580 5579 5577 5575 5574 5574 5574 5574 5573 5571 5570 5570 5569 5569 5568 5568 5569 5570 5572 5573 5574 5574 5573 5572 5571 5571
5618 5615 5613 5610 5607 5605 5602 5599 5595 5592 5589 5587 5585 5584 5583 5583 5582 5581 5579 5578 5576 5574 5574 5574 5572 5572 5571 5571 5571 5570 5569 5568 5568 5568 5570 5571 5572 5572 5572 5572 5572 5571 5571
5615 5613 5611 5608 5606 5604 5601 5599 5596 5593 5590 5588 5586 5584 5584 5583 5583 5582 5580 5579 5577 5575 5574 5573 5571 5571 5570 5570 5570 5570 5569 5568 5567 5567 5569 5569 5569 5569 5570 5570 5570 5569 5569
5614 5611 5609 5607 5605 5603 5601 5599 5597 5595 5592 5590 5588 5586 5584 5584 5585 5582 5579 5578 5577 5575 5572 5572 5572 5571 5570 5570 5569 5568 5567 5567 5566 5566 5566 5566 5567 5567 5567 5567 5566 5566 5566
5612 5610 5608 5606 5604 5603 5601 5599 5599 5597 5595 5592 5589 5586 5584 5583 5582 5581 5579 5577 5576 5573 5571 5570 5570 5569 5568 5567 5567 5567 5567 5566 5566 5565 5565 5564 5565 5565 5565 5564 5563 5563 5563
5612 5610 5608 5606 5604 5602 5601 5599 5597 5597 5596 5593 5591 5588 5586 5584 5583 5581 5579 5577 5575 5572 5569 5569 5568 5567 5566 5565 5565 5564 5564 5565 5564 5563 5563 5562 5562 5561 5561 5561 5560 5559 5559
5613 5611 5609 5607 5605 5603 5601 5599 5597 5595 5594 5594 5593 5591 5588 5586 5584 5582 5579 5576 5575 5571 5569 5568 5567 5566 5564 5563 5563 5562 5562 5562 5561 5560 5559 5559 5558 5557 5557 5557 5557 5556 5555
5613 5611 5609 5607 5605 5603 5602 5600 5598 5595 5594 5593 5592 5592 5589 5587 5585 5582 5578 5575 5574 5572 5569 5567 5565 5564 5563 5562 5561 5560 5559 5558 5558 5557 5556 5555 5554 5553 5553 5552 5552 5550 5549
5614 5612 5610 5607 5606 5604 5602 5601 5599 5596 5594 5592 5591 5590 5588 5586 5584 5581 5578 5575 5572 5570 5569 5567 5565 5563 5562 5560 5559 5557 5557 5556 5554 5553 5552 5551 5550 5549 5548 5548 5547 5546 5546
5614 5613 5610 5608 5606 5605 5603 5601 5599 5597 5595 5593 5591 5590 5587 5584 5582 5580 5578 5575 5572 5570 5568 5566 5564 5562 5560 5558 5556 5555 5553 5552 5550 5548 5547 5546 5545 5544 5543 5542 5542 5542 5541
5615 5612 5610 5608 5606 5604 5603 5601 5599 5596 5595 5593 5592 5591 5587 5585 5582 5580 5578 5575 5573 5570 5567 5564 5562 5560 5558 5555 5553 5551 5548 5546 5545 5543 5542 5541 5540 5539 5538 5537 5537 5536 5536
5614 5612 5610 5608 5606 5604 5602 5600 5598 5596 5594 5593 5591 5589 5587 5584 5582 5579 5577 5574 5572 5569 5566 5563 5560 5558 5555 5552 5549 5545 5543 5541 5539 5537 5535 5535 5534 5533 5532 5531 5531 5530 5530
5614 5612 5610 5608 5606 5604 5602 5599 5598 5596 5594 5592 5590 5588 5586 5583 5581 5578 5575 5573 5570 5567 5564 5561 5558 5555 5552 5548 5545 5541 5538 5535 5533 5531 5529 5528 5527 5527 5526 5525 5524 5524 5523
5614 5612 5610 5608 5605 5603 5601 5599 5597 5595 5593 5591 5589 5587 5585 5582 5579 5576 5573 5570 5568 5564 5561 5558 5554 5551 5548 5544 5540 5537 5534 5530 5527 5525 5523 5521 5521 5520 5519 5518 5517 5516 5515
5614 5612 5610 5607 5605 5603 5600 5598 5596 5594 5592 5590 5588 5586 5583 5580 5577 5574 5571 5567 5564 5561 5557 5554 5550 5546 5543 5539 5535 5531 5528 5525 5522 5519 5516 5515 5514 5512 5511 5510 5509 5508 5507